Clarksburg, WV

9:07 PM EDT on October 22, 2019 (GMT -0400)
Benedum

Weather History for KCKB - August, 2019

Change the Weather History Date:

Tuesday, August 6, 2019

  Actual Average Record
Temperature  
Mean Temperature 76 °F -  
Max Temperature 89 °F 82 °F 97 °F (1930)
Min Temperature 64 °F 60 °F 45 °F (1957)
Cooling Degree Days 11    
Growing Degree Days 26 (Base 50)    
Moisture  
Dew Point 64 °F    
Average Humidity 68    
Maximum Humidity 87    
Minimum Humidity 43    
Precipitation  
Precipitation 0.18 in - - ()
Sea Level Pressure  
Sea Level Pressure 29.85 in    
Wind  
Wind Speed 3 mph ()    
Max Wind Speed 16 mph    
Max Gust Speed 32 mph    
Visibility 9.1 miles    
Events Rain , Thunderstorm    
Averages and records for this station are not official NWS values.
T = Trace of Precipitation, MM = Missing Value Source: Averaged Metar Reports

Daily Weather History Graph

Daily Weather History Graph

Search for Another Location

Airport or City:

Astronomy

Aug. 06, 2019 Rise Set
Actual Time 6:25 AM EDT 8:27 PM EDT
Civil Twilight 5:55 AM EDT 8:57 PM EDT
Nautical Twilight 5:19 AM EDT 9:33 PM EDT
Astronomical Twilight 4:40 AM EDT 10:11 PM EDT
Moon 12:46 PM EDT (8/6) No Moon Set
Length of Visible Light 15h 01m
Length of Day
14h 02m
Waxing Crescent, 38% of the Moon is Illuminated
Aug 6
Waxing Crescent
Aug 7
First Quarter
Aug 15
Full
Aug 23
Last Quarter
Aug 30
New

Hourly Weather History & Observations

Time (EDT) Temp. Heat Index Dew Point Humidity Pressure Visibility Wind Dir Wind Speed Gust Speed Precip Events Conditions
12:53 AM 68.0 °F - 63.0 °F 84% 29.90 in 8.0 mi Calm Calm - N/A   Clear
1:53 AM 68.0 °F - 63.0 °F 84% 29.90 in 8.0 mi Calm Calm - N/A   Clear
2:53 AM 68.0 °F - 63.0 °F 84% 29.89 in 7.0 mi Calm Calm - N/A   Clear
3:53 AM 66.9 °F - 62.1 °F 84% 29.89 in 9.0 mi SW 3.5 mph - N/A   Clear
4:53 AM 66.0 °F - 61.0 °F 84% 29.88 in 10.0 mi Calm Calm - N/A   Clear
5:53 AM 64.9 °F - 61.0 °F 87% 29.88 in 8.0 mi Calm Calm - N/A   Clear
6:53 AM 64.9 °F - 61.0 °F 87% 29.89 in 6.0 mi Calm Calm - N/A   Clear
7:53 AM 68.0 °F - 62.1 °F 81% 29.89 in 10.0 mi Calm Calm - N/A   Clear
8:53 AM 73.0 °F - 63.0 °F 71% 29.90 in 10.0 mi SSW 4.6 mph - N/A   Clear
9:53 AM 77.0 °F - 64.0 °F 64% 29.89 in 10.0 mi Variable 5.8 mph - N/A   Clear
10:53 AM 81.0 °F 83.0 °F 66.0 °F 60% 29.88 in 10.0 mi Variable 4.6 mph - N/A   Clear
11:53 AM 84.9 °F 86.6 °F 64.9 °F 51% 29.88 in 10.0 mi West 10.4 mph - N/A   Clear
12:53 PM 88.0 °F 88.7 °F 63.0 °F 43% 29.86 in 10.0 mi WSW 9.2 mph - N/A   Partly Cloudy
1:53 PM 84.9 °F 85.4 °F 62.1 °F 46% 29.85 in 10.0 mi WSW 10.4 mph - N/A   Mostly Cloudy
1:58 PM 81.0 °F 82.2 °F 63.0 °F 54% 29.90 in 1.5 mi NNW 16.1 mph 32.2 mph 0.13 in Rain Heavy Rain
2:05 PM 78.1 °F - 64.0 °F 62% 29.89 in 10.0 mi SSW 5.8 mph 32.2 mph 0.16 in   Mostly Cloudy
2:53 PM 88.0 °F 90.3 °F 66.0 °F 48% 29.82 in 10.0 mi WSW 6.9 mph - 0.16 in   Clear
3:53 PM 88.0 °F 88.7 °F 63.0 °F 43% 29.80 in 10.0 mi West 8.1 mph - N/A   Partly Cloudy
4:53 PM 86.0 °F 86.8 °F 63.0 °F 46% 29.79 in 10.0 mi SW 8.1 mph - N/A   Scattered Clouds
5:53 PM 88.0 °F 88.7 °F 63.0 °F 43% 29.78 in 10.0 mi SW 8.1 mph - N/A   Scattered Clouds
6:53 PM 82.9 °F 84.4 °F 64.0 °F 53% 29.78 in 10.0 mi SSW 4.6 mph - N/A   Partly Cloudy
7:07 PM 78.1 °F - 64.9 °F 64% 29.84 in 6.0 mi South 11.5 mph 20.7 mph 0.02 in Thunderstorm Unknown
7:53 PM 73.0 °F - 64.9 °F 76% 29.81 in 10.0 mi South 4.6 mph - 0.02 in Thunderstorm Mostly Cloudy
8:08 PM 73.0 °F - 64.9 °F 76% 29.86 in 10.0 mi SSW 4.6 mph - N/A   Scattered Clouds
8:53 PM 73.0 °F - 64.9 °F 76% 29.82 in 10.0 mi South 3.5 mph - N/A   Partly Cloudy
9:53 PM 72.0 °F - 64.9 °F 78% 29.81 in 10.0 mi Calm Calm - N/A   Clear
10:53 PM 70.0 °F - 64.9 °F 84% 29.81 in 10.0 mi Calm Calm - N/A   Clear
11:53 PM 70.0 °F - 64.0 °F 81% 29.80 in 10.0 mi South 3.5 mph - N/A   Scattered Clouds